AirNav   Everest Fuels
 
 1066 users online  

0TS9 McClellan Creek Airport
McLean, Texas, USA

GOING TO MCLEAN?


FAA INFORMATION EFFECTIVE 22 APRIL 2021

Location

FAA Identifier: 0TS9
Lat/Long: 35-20-24.3800N 100-37-46.4700W
35-20.406333N 100-37.774500W
35.3401056,-100.6295750
(estimated)
Elevation: 2796 ft. / 852 m
From city: 7 miles NNW of MCLEAN, TX
Time zone: UTC -5 (UTC -6 during Standard Time)
Zip code: 79057

Airport Operations

Airport use: Private use. Permission required prior to landing
Activation date: 10/2016
Control tower: no
ARTCC: ALBUQUERQUE CENTER
FSS: FORT WORTH FLIGHT SERVICE STATION
Attendance: 
Segmented circle: no

Airport Services

Runway Information

Runway 18/36

Dimensions: 1407 x 75 ft. / 429 x 23 m
Surface: turf, in good condition
RUNWAY 18  RUNWAY 36
Traffic pattern: leftleft

Airport Ownership and Management from official FAA records

Ownership: Privately-owned
Owner: RAYMOND HENRY
PO BOX 115
LEFORS, TX 79054
Phone 806-669-4690
Manager: RAYMOND HENRY
PO BOX 115
LEFORS, TX 79054
Phone 806-669-4690

Additional Remarks

FOR CD CTC ALBUQUERQUE ARTCC AT 505-856-4861.
(CONTACT PHONE NR) RONFERNUIK@HOTMAIL.COM

Instrument Procedures

There are no published instrument procedures at 0TS9.

Some nearby airports with instrument procedures:

T59 - Wheeler Municipal Airport (22 nm E)
KPPA - Perry Lefors Field Airport (24 nm NW)
KHHF - Hemphill County Airport (35 nm N)
T45 - Panhandle-Carson County Airport (36 nm W)
KBGD - Hutchinson County Airport (43 nm NW)
 
Loc | Ops | Rwys | IFR | FBO | Links
Com | Nav | Svcs | Stats | Notes

AirBoss

 
Aerial photo
No photo
 
Airport distance calculator
Flying to McClellan Creek Airport? Find the distance to fly.

From to 0TS9

Sunrise and sunset
Times for 13-May-2021
 Local
(UTC-5)
 Zulu
(UTC)
Morning civil twilight06:1311:13
Sunrise06:4111:41
Sunset20:3701:37
Evening civil twilight21:0502:05

Current date and time
Zulu (UTC)  13-May-2021 23:30:36
Local (UTC-5)  13-May-2021 18:30:36
 
METAR
KPPA 
20nm NW 
132315Z AUTO 16015G20KT 10SM SCT060 21/08 A3018 RMK AO2 T02140079
KHHF 
35nm N 
132315Z AUTO 16012KT 10SM OVC055 22/09 A3016 RMK AO2 T02220089
KBPC 
38nm NW 
132315Z AUTO 17015G19KT 10SM BKN075 23/06 A3015 RMK AO2
TAF
NOTAMs
Click for the latest NOTAMs
NOTAMs are issued by the DoD/FAA and will open in a separate window not controlled by AirNav.

 

 
 

Would you like to see your business listed on this page?

 If your business provides an interesting product or service to pilots, flight crews, aircraft, or users of the McClellan Creek Airport, you should consider listing it here.  To start the listing process, click on the button below
 
Add a business
 

Other Pages about McClellan Creek Airport

Update a link
 
Copyright © AirNav, LLC. All rights reserved. Privacy Policy  Contact